Location: Asheville, NC
(35.6000°N, 82.5500°W)
Time: 05:45:10
(UTC-04:00)

Vanguard 3 - Pass Details

Date: 10 December 2017
Orbit: 508 x 3264 km, 33.3° (Epoch: 20 April)

Event Time Altitude Azimuth Distance (km) Brightness Sun altitude
Rises 19:40:34 0° 268° (W) 3,296 11.5 -28.4°
Reaches altitude 10° 19:43:07 10° 253° (WSW) 2,636 10.7 -28.9°
Maximum altitude 19:48:07 24° 201° (SSW) 2,334 9.7 -29.9°
Drops below altitude 10° 19:55:32 10° 154° (SSE) 4,062 10.5 -31.4°
Enters shadow 19:57:52 - 148° (SSE) 4,760 10.8 -31.8°
